TimeEST,TemperatureF,Dew PointF,Humidity,Sea Level PressureIn,VisibilityMPH,Wind Direction,Wind SpeedMPH,Gust SpeedMPH,PrecipitationIn,Events,Conditions,WindDirDegrees,DateUTC
12:32 AM,21.2,21.2,100,29.80,1.5,Calm,Calm,-,N/A,,Clear,0,2013-01-17 05:32:00
12:35 AM,21.2,21.2,100,29.80,0.8,Calm,Calm,-,N/A,,Clear,0,2013-01-17 05:35:00
12:51 AM,19.9,19.0,96,29.82,0.2,Calm,Calm,-,N/A,Fog,Light Freezing Fog,0,2013-01-17 05:51:00
1:51 AM,19.9,18.0,92,29.84,0.2,Calm,Calm,-,N/A,Fog,Light Freezing Fog,0,2013-01-17 06:51:00
2:30 AM,21.2,19.4,93,29.83,1.0,Calm,Calm,-,N/A,,Clear,0,2013-01-17 07:30:00
2:34 AM,19.4,19.4,100,29.82,2.0,Calm,Calm,-,N/A,,Clear,0,2013-01-17 07:34:00
2:44 AM,17.6,15.8,93,29.82,6.0,Calm,Calm,-,N/A,,Clear,0,2013-01-17 07:44:00
2:51 AM,18.0,15.1,88,29.83,2.0,Calm,Calm,-,N/A,,Clear,0,2013-01-17 07:51:00
2:54 AM,19.4,15.8,86,29.81,1.0,Calm,Calm,-,N/A,,Clear,0,2013-01-17 07:54:00
2:57 AM,19.4,17.6,93,29.81,0.5,Calm,Calm,-,N/A,Fog,Light Freezing Fog,0,2013-01-17 07:57:00
3:05 AM,17.6,15.8,93,29.81,0.2,Calm,Calm,-,N/A,Fog,Light Freezing Fog,0,2013-01-17 08:05:00
3:13 AM,17.6,15.8,93,29.81,0.2,Calm,Calm,-,N/A,Fog,Light Freezing Fog,0,2013-01-17 08:13:00
3:26 AM,19.4,15.8,86,29.81,1.0,Calm,Calm,-,N/A,,Clear,0,2013-01-17 08:26:00
3:28 AM,17.6,15.8,93,29.80,2.0,Calm,Calm,-,N/A,,Clear,0,2013-01-17 08:28:00
3:38 AM,17.6,15.8,93,29.80,1.2,Calm,Calm,-,N/A,,Clear,0,2013-01-17 08:38:00
3:48 AM,15.8,12.2,86,29.79,2.5,SSE,3.5,-,N/A,,Clear,150,2013-01-17 08:48:00
3:51 AM,15.1,12.0,88,29.81,7.0,SE,3.5,-,N/A,,Clear,130,2013-01-17 08:51:00
4:22 AM,15.8,14.0,93,29.80,2.5,Calm,Calm,-,N/A,,Clear,0,2013-01-17 09:22:00
4:30 AM,19.4,17.6,93,29.81,5.0,Calm,Calm,-,N/A,,Clear,0,2013-01-17 09:30:00
4:51 AM,18.0,15.1,88,29.83,7.0,Calm,Calm,-,N/A,,Clear,0,2013-01-17 09:51:00
5:51 AM,19.9,19.0,96,29.84,10.0,Calm,Calm,-,N/A,,Overcast,0,2013-01-17 10:51:00
6:51 AM,21.9,19.9,92,29.86,10.0,SSE,3.5,-,N/A,,Partly Cloudy,150,2013-01-17 11:51:00
7:51 AM,28.0,26.1,92,29.88,10.0,West,4.6,-,N/A,,Clear,270,2013-01-17 12:51:00
8:51 AM,33.1,28.0,82,29.90,10.0,WSW,6.9,-,N/A,,Clear,250,2013-01-17 13:51:00
9:51 AM,36.0,28.0,73,29.91,10.0,WSW,9.2,-,N/A,,Clear,240,2013-01-17 14:51:00
10:51 AM,37.0,27.0,67,29.92,10.0,West,10.4,-,N/A,,Clear,270,2013-01-17 15:51:00
11:51 AM,37.9,26.1,62,29.94,10.0,West,11.5,17.3,N/A,,Scattered Clouds,270,2013-01-17 16:51:00
12:51 PM,37.9,26.1,62,29.93,10.0,West,9.2,-,N/A,,Clear,270,2013-01-17 17:51:00
1:30 PM,33.8,26.6,75,29.95,2.5,NNW,15.0,40.3,0.00,Snow,Light Snow,330,2013-01-17 18:30:00
1:40 PM,33.8,28.4,81,29.96,4.0,NW,13.8,-,0.00,Snow,Light Snow,320,2013-01-17 18:40:00
1:51 PM,34.0,26.1,73,29.98,9.0,NW,12.7,-,0.00,,Mostly Cloudy,320,2013-01-17 18:51:00
2:51 PM,34.0,21.9,61,30.00,10.0,WNW,9.2,20.7,N/A,,Scattered Clouds,300,2013-01-17 19:51:00
3:51 PM,32.0,15.1,50,30.04,10.0,NW,15.0,25.3,N/A,,Partly Cloudy,310,2013-01-17 20:51:00
4:51 PM,28.9,12.0,49,30.05,10.0,NNW,8.1,-,N/A,,Clear,330,2013-01-17 21:51:00
5:51 PM,28.4,10.4,47,30.06,10.0,NW,6.9,-,N/A,,Clear,310,2013-01-17 22:51:00
6:51 PM,27.0,8.1,45,30.12,10.0,WNW,15.0,-,N/A,,Clear,300,2013-01-17 23:51:00
7:51 PM,26.1,9.0,49,30.11,10.0,WNW,9.2,-,N/A,,Clear,290,2013-01-18 00:51:00
8:51 PM,25.0,7.0,46,30.09,10.0,WNW,15.0,19.6,N/A,,Clear,300,2013-01-18 01:51:00
9:51 PM,24.1,8.1,51,30.09,10.0,NNW,3.5,-,N/A,,Clear,340,2013-01-18 02:51:00
10:51 PM,21.9,5.0,48,30.09,10.0,NNW,9.2,-,N/A,,Clear,330,2013-01-18 03:51:00
11:51 PM,19.9,3.0,48,30.07,10.0,North,9.2,-,N/A,,Clear,350,2013-01-18 04:51:00